Regional Weather Roundup
Issued by NWS

Home | Current Version | Previous Version | Graphics & Text | Print | Product List | Glossary On
Versions: 1 2 3 4 5 6 7 8 9 10 11 12 13 14 15 16 17 18 19 20 21 22 23 24 25 26 27 28 29 30 31 32 33 34 35 36 37 38 39 40 41 42 43 44 45 46 47 48 49 50
078
ASUS45 KBOU 271207
RWRCO

WEATHER ROUNDUP FOR COLORADO
NATIONAL WEATHER SERVICE DENVER/BOULDER CO
600 AM MDT SAT AUG 27 2016

NOTE: "FAIR" INDICATES FEW OR NO CLOUDS BELOW 12000 FEET WITH NO
SIGNIFICANT WEATHER AND/OR OBSTRUCTIONS TO VISIBILITY.

COZ001>005-013-030-031-271300-
...NORTHWEST COLORADO...

CITY           SKY/WX    TMP DP  RH WIND       PRES   REMARKS
CRAIG          FAIR      45  39  79 CALM      30.21R
HAYDEN         FAIR      46  36  66 E9        30.23R
MEEKER         FAIR      41  39  93 N3        30.23R
MOUNT WERNER   NOT AVBL
STEAMBOAT SPGS FAIR      41  37  86 CALM      30.24S
WALDEN         FAIR      37  32  81 S5        30.31R
$$

COZ006>008-011-271300-
...WEST CENTRAL VALLEYS...

CITY           SKY/WX    TMP DP  RH WIND       PRES   REMARKS
GRAND JUNCTION FAIR      55  47  74 E5        30.15S
MONTROSE       FAIR      53  44  71 W5        30.23R
EAGLE          FAIR      45  43  93 E6        30.29S
RIFLE          FAIR      49  48  97 SE5       30.22S
DELTA          NOT AVBL
NUCLA          FAIR     N/A N/A N/A E10       30.23S
$$

COZ017>023-064>068-271300-
...SOUTHWEST COLORADO...

CITY           SKY/WX    TMP DP  RH WIND       PRES   REMARKS
DURANGO        FAIR      48  43  82 N3        30.25R
CORTEZ         CLOUDY    53  48  83 NE5       30.19S
PAGOSA SPRINGS FAIR      42  41  98 W3        30.31S
TELLURIDE      FAIR      45  42  90 CALM      30.38F
WOLF CREEK PAS FAIR      36  36 100 MISG      30.54S
$$

COZ009-010-012-014-032>034-037-058>063-271300-
...CENTRAL COLORADO...

CITY           SKY/WX    TMP DP  RH WIND       PRES   REMARKS
ASPEN          FAIR      40  38  93 SW6       30.30S
BUENA VISTA    FAIR      41  35  79 E3        30.31S
COPPER MTN     FAIR      41  30  65 SW7       30.50S
BERTHOUD PASS  FAIR      32  19  59 NW14G23   30.50R WCI  22
COTTONWOOD PAS FAIR      50  32  50 W6        30.39S
GUNNISON       FAIR      41  37  87 N3        30.35F
KREMMLING      FAIR      37  34  87 E6        30.32R
LEADVILLE      FAIR      32  30  92 E3        30.39S
MONARCH PASS   FAIR      36  32  87 W23       30.60S
SALIDA         FAIR      47  37  65 CALM      30.37S
SUNLIGHT       FAIR      37  37 100 NE12G20   30.46S
WILKERSON PASS FAIR      37  28  70 W8G20     30.47S
$$

COZ069>075-271300-
...SAN LUIS VALLEY/SANGRE DE CRISTO MOUNTAINS...

CITY           SKY/WX    TMP DP  RH WIND       PRES   REMARKS
ALAMOSA        FAIR      37  35  92 CALM      30.30R
LA VETA PASS   FAIR      43  37  81 S7        30.40R
SAGUACHE       FAIR      45  37  76 N7        30.32R
$$

COZ035-036-038>040-271300-
...NORTHERN COLORADO FRONT RANGE...

CITY           SKY/WX    TMP DP  RH WIND       PRES   REMARKS
DENVER INTL AP FAIR      50  46  86 SW8       30.12R
DMNS CITY PARK   N/A     51  46  82 SE7       30.13R
AURORA         PTCLDY    49  44  83 S5        30.14R
FRONT RANGE AP NOT AVBL
ERIE MUNI ARPT FAIR      47  45  91 S3        30.11S
BOULDER MUN AP FAIR      52  45  76 SW3       30.11S
CENTENNIAL     FAIR      50  43  77 N3        30.15R
BROOMFIELD     FAIR      55  46  71 CALM      30.14R
FORT COLLINS   FAIR      52  48  87 S3        30.12R
LONGMONT       FAIR      48  44  87 CALM      30.13S
$$

COZ041-046-047-076>085-087-088-271300-
...PIKES PEAK/PALMER DIVIDE AND SOUTHERN FOOTHILLS...

CITY           SKY/WX    TMP DP  RH WIND       PRES   REMARKS
COLO. SPRINGS  FAIR      52  45  77 N10       30.18R
A. F. ACADEMY  FAIR      46  43  88 N7        30.19R
SCHRIEVER AFB  NOT AVBL
ELLICOTT       NOT AVBL
FALCON         FAIR      50  47  89 W7        30.22R
FORT CARSON    FAIR      53  45  74 NW7       30.14S
LIMON          FAIR      44  44 100 N7        30.12R FOG
MONUMENT HILL  FAIR      52  45  76 S8        30.22R
TRINIDAD       FAIR      52  45  77 W8        30.16S
$$

COZ042>045-048>051-090-091-271300-
...NORTHEAST COLORADO...

CITY           SKY/WX    TMP DP  RH WIND       PRES   REMARKS
GREELEY ARPT   FAIR      46  45  93 CALM      30.11R
AKRON          FAIR      48  46  93 S3        30.09R
BURLINGTON     FOG       53  51  93 S6        30.08R VSB 1/4
WRAY           FOG      N/A N/A N/A CALM      30.07R VSB 1/2
STERLING       FOG       50  50 100 CALM      30.06S VSB<1/4
HOLYOKE        CLOUDY    54  52  94 CALM      30.09R
FORT MORGAN    FAIR      46  45  95 N3        30.09R
$$

COZ086-089-092>099-271300-
...SOUTHEAST COLORADO...

CITY           SKY/WX    TMP DP  RH WIND       PRES   REMARKS
PUEBLO         FAIR      55  47  74 W3        30.09R
LA JUNTA       FAIR      54  52  93 W7        30.07R
LAMAR          FOG       49  48  97 CALM      30.03S VSB 1
SPRINGFIELD      N/A     54  53  97 SW7       30.07R
$$




USA.gov is the U.S. government's official web portal to all federal, state and local government web resources and services.